[[{"header":{"parameterUnit":"m.s-1","parameterCategory":1,"la1":30.2991,"la2":30.254,"lo1":-89.0895,"lo2":-89.0444,"dy":0.0017,"dx":0.0017,"nx":28,"ny":28,"refTime":"2025-04-13T21:00:00:Z","depth":0,"parameterNumber":2,"parameterNumberName":"U-component_of_WINDS"},"data":[0,0,0,0,0,0,0,0,0,0,0,0,0,0,0,0,0,0,0,0,0,0,0,0,0,0,0,0,0,0,0,0,0,0,0,0,0,0,0,0,0,0,0,0,0,0,0,0,0,0,0,0,0,0,0,0,0,0,4.1267,4.1268,0,4.136,4.1361,4.1362,4.1305,4.1302,4.1299,4.1297,4.1393,4.1398,4.1403,0,0,0,0,0,0,0,0,0,0,0,0,0,4.1043,4.1048,4.1267,4.1269,4.127,4.136,4.1361,4.1362,4.1305,4.1302,4.1299,4.1295,4.1392,4.1398,4.1404,0,0,0,0,0,0,0,0,0,0,0,0,0,4.1139,4.1049,4.1267,4.1252,4.1251,4.136,4.1361,4.1363,4.1306,4.1302,4.1298,4.1294,4.139,4.1397,4.1405,4.1533,0,0,4.1428,4.1431,0,0,0,0,0,0,0,0,4.1134,4.1147,4.1253,4.1253,4.1253,4.1317,4.1317,4.142,4.1307,4.1285,4.1297,4.1292,4.1371,4.138,4.1407,4.1538,4.1542,4.1429,4.1433,4.1437,4.1439,0,0,0,0,0,0,0,4.1127,4.1143,4.1304,4.1255,4.1255,4.1241,4.125,4.1337,4.135,4.1287,4.1283,4.1295,4.137,4.1399,4.1408,4.1544,4.1429,4.1435,4.144,4.1443,4.1787,4.1791,0,0,0,0,0,0,4.1121,4.1138,4.1301,4.1307,4.1182,4.1249,4.1259,4.13,4.1349,4.1352,4.1298,4.1292,4.1388,4.1399,4.1412,4.1567,4.1437,4.1444,4.1448,4.1782,4.1788,4.1793,0,0,0,0,0,0,4.1117,4.1136,4.1297,4.1221,4.1241,4.1257,4.1304,4.1304,4.1333,4.1357,4.136,4.1325,4.1385,4.1401,4.1504,4.1569,4.1447,4.1454,4.1777,4.1784,4.179,4.1877,0,0,0,0,0,0,4.1111,4.1135,4.1184,4.1223,4.1245,4.1388,4.1308,4.1309,4.1346,4.1339,4.1383,4.1387,4.1383,4.1493,4.1511,4.1577,4.146,4.1771,4.178,4.1788,4.1869,4.1886,4.1901,0,0,0,0,0,4.1103,4.1204,4.1186,4.1206,4.1306,4.1391,4.1404,4.1398,4.1352,4.1401,4.1417,4.1385,4.1559,4.1504,4.1524,4.1594,4.1767,4.1778,4.1788,4.1861,4.1883,4.1901,0,0,0,0,0,0,4.1173,4.1209,4.119,4.1307,4.1346,4.1381,4.1443,4.1421,4.1475,4.1465,4.1456,4.1467,4.1574,4.1594,4.1532,4.1722,4.1656,4.1671,4.1705,4.1725,4.1741,4.1735,4.1467,0,0,0,0,0,4.1202,4.1268,4.1296,4.1397,4.1418,4.1428,4.1464,4.1456,4.1497,4.1514,4.1537,4.1579,4.1642,4.1685,4.1745,4.1871,4.1881,4.1929,4.1945,4.1958,4.1972,4.2041,4.2063,4.1826,4.1826,4.1826,0,0,4.1263,4.1291,4.1333,4.1412,4.1441,4.1511,4.1442,4.1518,4.1569,4.1525,4.1624,4.1643,4.1689,4.1804,4.1856,4.1824,4.2039,4.1971,4.1982,4.1988,4.2054,4.2077,4.2096,4.1833,4.1832,4.1831,0,0,4.1409,4.1436,4.1524,4.1555,4.1601,4.1607,4.1628,4.1667,4.1678,4.1777,4.1745,4.1807,4.1917,4.1951,4.1983,4.2144,4.2118,4.2164,4.2249,4.2317,4.2336,4.2352,4.2411,4.2432,4.2177,4.2177,4.2177,0,4.1479,4.1582,4.1572,4.1651,4.1687,4.165,4.1739,4.177,4.1834,4.186,4.1823,4.1961,4.1989,4.2113,4.2152,4.2179,4.2203,4.2159,4.2334,4.235,4.2366,4.2421,4.2443,4.2182,4.2182,4.2181,4.2181,0,4.1666,4.1738,4.1803,4.1865,4.1909,4.1993,4.1997,4.2042,4.203,4.204,4.2142,4.2175,4.2241,4.227,4.2259,4.2393,4.2372,4.2334,4.2268,4.2394,4.2446,4.2467,4.219,4.2188,4.2187,4.2185,0,0,4.186,4.1916,4.194,4.1968,4.2017,4.2072,4.2155,4.2219,4.2259,4.2304,4.2374,4.2468,4.2435,4.2471,4.2464,4.2523,4.265,4.2479,4.248,4.2511,4.2801,4.283,4.2854,4.2633,4.2637,4.264,4.2798,0,4.201,4.2154,4.2148,4.2282,4.2349,4.2315,4.2387,4.2425,4.2437,4.2496,4.2509,4.2577,4.2527,4.2549,4.2606,4.2623,4.2709,4.2611,4.2699,4.2702,4.2689,4.2882,4.2912,4.3059,4.2818,4.2821,4.2824,0,4.2205,4.2257,4.2398,4.2437,4.2465,4.253,4.2589,4.2646,4.2689,4.2693,4.2734,4.2718,4.2802,4.2733,4.2851,4.2785,4.282,4.2834,4.284,4.2848,4.2771,4.2897,4.3106,4.3129,4.2856,4.2853,4.2851,0,4.2334,4.2439,4.2537,4.2562,4.261,4.2657,4.2679,4.2717,4.2757,4.2809,4.2835,4.2897,4.2931,4.2979,4.298,4.293,4.31,4.303,4.3107,4.3107,4.3145,4.3143,4.3364,4.3166,4.3166,4.3165,4.3165,0,4.2503,4.2591,4.2596,4.2656,4.2754,4.2747,4.2845,4.2862,4.2897,4.2961,4.2935,4.2997,4.2993,4.3056,4.3057,4.3155,4.317,4.3177,4.3177,4.318,4.318,4.3204,4.3195,4.3171,4.317,4.3169,4.3168,0,4.2664,4.267,4.2776,4.2812,4.2824,4.2895,4.2926,4.2985,4.2994,4.3076,4.3095,4.311,4.3182,4.3187,4.3271,4.3272,4.3391,4.3379,4.3377,4.3375,4.3452,4.3445,4.3697,4.3731,4.351,4.3512,4.3514,0,4.2773,4.284,4.2884,4.2925,4.2949,4.3016,4.3056,4.3052,4.3095,4.3149,4.3201,4.327,4.3326,4.3443,4.3462,4.3526,4.3516,4.36,4.3525,4.3527,4.3519,4.3515,4.3523,4.3615,4.3617,4.3619,4.3621,0,4.2965,4.2965,4.3024,4.3084,4.3133,4.3181,4.3225,4.326,4.3261,4.3311,4.3384,4.3427,4.3513,4.3582,4.3645,4.3669,4.3646,4.3644,4.3665,4.367,4.3667,4.3671,4.3417,4.3638,4.3637,4.3635,4.3634,4.3634,4.3104,4.3163,4.3203,4.327,4.3302,4.3345,4.3401,4.3418,4.3479,4.3547,4.3541,4.3622,4.3664,4.3746,4.3775,4.3839,4.3811,4.3841,4.3849,4.3857,4.3866,4.3656,4.385,4.385,4.3849,4.3849,4.3848,0,4.3296,4.3321,4.3382,4.3445,4.3498,4.347,4.3518,4.3565,4.3636,4.3677,4.3732,4.3817,4.3884,4.3909,4.3975,4.4022,4.4013,4.404,4.4037,4.4043,4.3887,4.3862,4.4046,4.4046,4.4046,4.4045,4.4045,4.4045,4.3403,4.3501,4.3505,4.362,4.3643,4.3723,4.3752,4.3792,4.3824,4.392,4.3976,4.3991,4.4025,4.4094,4.4155,4.4161,4.4187,4.4218,4.422,4.4074,4.4054,4.4035,4.4012,4.4224,4.4224,4.4371,4.4372,4.4373]},{"header":{"parameterUnit":"m.s-1","parameterCategory":1,"la1":30.2991,"la2":30.254,"lo1":-89.0895,"lo2":-89.0444,"dy":0.0017,"dx":0.0017,"nx":28,"ny":28,"refTime":"2025-04-13T21:00:00:Z","depth":0,"parameterNumber":3,"parameterNumberName":"V-component_of_WINDS"},"data":[0,0,0,0,0,0,0,0,0,0,0,0,0,0,0,0,0,0,0,0,0,0,0,0,0,0,0,0,0,0,0,0,0,0,0,0,0,0,0,0,0,0,0,0,0,0,0,0,0,0,0,0,0,0,0,0,0,0,-0.1974,-0.1973,0,-0.1968,-0.1968,-0.1968,-0.1914,-0.1913,-0.1911,-0.191,-0.1909,-0.1911,-0.1912,0,0,0,0,0,0,0,0,0,0,0,0,0,-0.1943,-0.1943,-0.1974,-0.1973,-0.1973,-0.1968,-0.1968,-0.1968,-0.1914,-0.1913,-0.1911,-0.1909,-0.1909,-0.191,-0.1912,0,0,0,0,0,0,0,0,0,0,0,0,0,-0.1949,-0.1944,-0.1974,-0.1946,-0.1943,-0.1968,-0.1968,-0.1968,-0.1915,-0.1913,-0.191,-0.1909,-0.1908,-0.191,-0.1912,-0.1964,0,0,-0.1918,-0.1919,0,0,0,0,0,0,0,0,-0.1948,-0.195,-0.195,-0.1948,-0.1945,-0.1939,-0.1957,-0.1967,-0.1915,-0.1926,-0.191,-0.1908,-0.1921,-0.1922,-0.1926,-0.1964,-0.1964,-0.1918,-0.1919,-0.192,-0.192,0,0,0,0,0,0,0,-0.1948,-0.195,-0.1971,-0.195,-0.1947,-0.1935,-0.1934,-0.1958,-0.1935,-0.1925,-0.1921,-0.192,-0.192,-0.1924,-0.1925,-0.1964,-0.1918,-0.192,-0.1921,-0.1921,-0.2047,-0.2049,0,0,0,0,0,0,-0.1951,-0.195,-0.1972,-0.1971,-0.1941,-0.1938,-0.1936,-0.1943,-0.1935,-0.1931,-0.1922,-0.1918,-0.1922,-0.1923,-0.1925,-0.1986,-0.192,-0.1922,-0.1923,-0.2045,-0.2048,-0.205,0,0,0,0,0,0,-0.195,-0.1953,-0.1972,-0.1959,-0.1961,-0.194,-0.1949,-0.1944,-0.1949,-0.1933,-0.1929,-0.1931,-0.192,-0.1922,-0.1955,-0.1986,-0.1922,-0.1924,-0.2042,-0.2046,-0.2049,-0.2109,0,0,0,0,0,0,-0.195,-0.1953,-0.1972,-0.196,-0.1962,-0.2001,-0.1951,-0.1946,-0.1951,-0.1946,-0.194,-0.1937,-0.1919,-0.1952,-0.1957,-0.1987,-0.1926,-0.2039,-0.2044,-0.2048,-0.2105,-0.2114,-0.2123,0,0,0,0,0,-0.1949,-0.199,-0.1973,-0.1976,-0.1984,-0.2002,-0.2003,-0.198,-0.1954,-0.1973,-0.1963,-0.1937,-0.1981,-0.1956,-0.1961,-0.1992,-0.2037,-0.2043,-0.2047,-0.2101,-0.2112,-0.2123,0,0,0,0,0,0,-0.2008,-0.1988,-0.1969,-0.2007,-0.2007,-0.1993,-0.2017,-0.1994,-0.2002,-0.1997,-0.1969,-0.1968,-0.2006,-0.2002,-0.1974,-0.2043,-0.2005,-0.2011,-0.2044,-0.2055,-0.2064,-0.2065,-0.1927,0,0,0,0,0,-0.2025,-0.2039,-0.2022,-0.2058,-0.2058,-0.2038,-0.2045,-0.2027,-0.2026,-0.2026,-0.2018,-0.202,-0.2034,-0.2044,-0.2056,-0.2103,-0.2102,-0.2127,-0.2136,-0.2144,-0.215,-0.2176,-0.2187,-0.2066,-0.2066,-0.2066,0,0,-0.2061,-0.2052,-0.2063,-0.207,-0.2067,-0.2085,-0.2038,-0.2059,-0.2072,-0.203,-0.206,-0.2054,-0.2054,-0.2094,-0.2112,-0.2093,-0.2183,-0.215,-0.2156,-0.2158,-0.2182,-0.2194,-0.2204,-0.207,-0.2069,-0.2068,0,0,-0.2136,-0.213,-0.216,-0.2158,-0.2154,-0.214,-0.2147,-0.2137,-0.2131,-0.216,-0.2129,-0.2146,-0.217,-0.2172,-0.2176,-0.2252,-0.2228,-0.2257,-0.2305,-0.233,-0.234,-0.2348,-0.2376,-0.2387,-0.2262,-0.2263,-0.2263,0,-0.2182,-0.2206,-0.2178,-0.22,-0.2205,-0.2166,-0.2196,-0.2196,-0.2198,-0.2202,-0.218,-0.2211,-0.2208,-0.2248,-0.2267,-0.2271,-0.228,-0.2258,-0.234,-0.2348,-0.2356,-0.2383,-0.2393,-0.2266,-0.2266,-0.2265,-0.2265,0,-0.2263,-0.228,-0.2305,-0.2305,-0.2312,-0.2339,-0.2317,-0.2327,-0.2309,-0.2298,-0.2329,-0.2324,-0.2335,-0.2343,-0.2326,-0.2382,-0.237,-0.2345,-0.2306,-0.2371,-0.2396,-0.2406,-0.2271,-0.227,-0.2269,-0.2268,0,0,-0.2376,-0.236,-0.237,-0.237,-0.2362,-0.2376,-0.2401,-0.241,-0.2421,-0.2423,-0.2445,-0.2467,-0.2443,-0.2448,-0.243,-0.2453,-0.2515,-0.2424,-0.2424,-0.2442,-0.2577,-0.2597,-0.261,-0.2498,-0.25,-0.2502,-0.2578,0,-0.2449,-0.249,-0.2466,-0.2511,-0.2527,-0.249,-0.2512,-0.2512,-0.2502,-0.2516,-0.2506,-0.2522,-0.2489,-0.2491,-0.2512,-0.2503,-0.2542,-0.2497,-0.252,-0.2522,-0.2523,-0.2622,-0.2643,-0.2715,-0.2587,-0.2589,-0.259,0,-0.254,-0.2544,-0.2591,-0.258,-0.2586,-0.2607,-0.2613,-0.2626,-0.2625,-0.2617,-0.2622,-0.2599,-0.2625,-0.2587,-0.2623,-0.2593,-0.2602,-0.2599,-0.2601,-0.2603,-0.2561,-0.2629,-0.2738,-0.2749,-0.2605,-0.2603,-0.2602,0,-0.2619,-0.2637,-0.2667,-0.2668,-0.2656,-0.2672,-0.2668,-0.2665,-0.2672,-0.2678,-0.2683,-0.2693,-0.2699,-0.2708,-0.269,-0.2663,-0.273,-0.2689,-0.2725,-0.2726,-0.2742,-0.2741,-0.2855,-0.2745,-0.2745,-0.2745,-0.2745,0,-0.2704,-0.2734,-0.2702,-0.2721,-0.2754,-0.2727,-0.2761,-0.2753,-0.2751,-0.2769,-0.2738,-0.2756,-0.273,-0.2746,-0.2732,-0.2765,-0.2768,-0.2763,-0.2759,-0.2766,-0.2767,-0.2772,-0.2767,-0.2748,-0.2747,-0.2746,-0.2746,0,-0.2798,-0.2778,-0.2808,-0.2795,-0.2792,-0.2817,-0.2807,-0.2824,-0.2812,-0.2836,-0.284,-0.2822,-0.2839,-0.2821,-0.2837,-0.2828,-0.2873,-0.2861,-0.2873,-0.287,-0.2908,-0.2905,-0.303,-0.3046,-0.2925,-0.2926,-0.2927,0,-0.2854,-0.2876,-0.2865,-0.2873,-0.2871,-0.2886,-0.2893,-0.2867,-0.2876,-0.2876,-0.2895,-0.2909,-0.2919,-0.2948,-0.2938,-0.2951,-0.294,-0.2983,-0.2942,-0.2949,-0.2942,-0.2942,-0.2945,-0.2992,-0.2993,-0.2994,-0.2995,0,-0.2956,-0.2945,-0.2955,-0.2962,-0.297,-0.2975,-0.2977,-0.2987,-0.296,-0.2972,-0.2988,-0.2996,-0.3012,-0.3027,-0.3037,-0.3035,-0.3012,-0.3008,-0.3017,-0.3026,-0.3032,-0.3031,-0.2897,-0.3006,-0.3005,-0.3004,-0.3003,-0.3003,-0.3034,-0.3052,-0.3047,-0.3059,-0.3058,-0.3061,-0.3077,-0.3066,-0.3079,-0.3089,-0.3073,-0.3094,-0.3093,-0.3103,-0.3104,-0.3122,-0.3104,-0.3117,-0.3121,-0.3125,-0.3131,-0.3028,-0.3123,-0.3123,-0.3123,-0.3122,-0.3122,0,-0.3136,-0.313,-0.3142,-0.3145,-0.3156,-0.313,-0.3132,-0.3143,-0.3161,-0.3161,-0.3171,-0.3191,-0.3205,-0.3196,-0.3208,-0.3224,-0.3214,-0.3229,-0.3228,-0.3228,-0.3145,-0.3137,-0.3237,-0.3237,-0.3237,-0.3237,-0.3237,-0.3237,-0.319,-0.3219,-0.3208,-0.3237,-0.3232,-0.325,-0.3254,-0.3257,-0.3257,-0.3279,-0.3291,-0.3284,-0.3281,-0.3293,-0.3306,-0.3303,-0.331,-0.3329,-0.3322,-0.3245,-0.3234,-0.3223,-0.3215,-0.333,-0.333,-0.3404,-0.3405,-0.3405]}]]